Regional Weather Roundup
Issued by NWS Wakefield, VA

Home | Current Version | Previous Version | Graphics & Text | Print | Product List | Glossary On
Versions: 1 2 3 4 5 6 7 8 9 10 11 12 13 14 15 16 17 18 19 20 21 22 23 24 25 26 27 28 29 30 31 32 33 34 35 36 37 38 39 40 41 42 43 44 45 46 47 48 49 50
000
ASUS41 KAKQ 172210
RWRAKQ

REGIONAL WEATHER ROUNDUP
NATIONAL WEATHER SERVICE WAKEFIELD VA
500 PM EST WED DEC 17 2014

Note: "fair" indicates few or no clouds below 12,000 feet with no
significant weather and/or obstructions to visibility. * = Denotes
station may not report precipitation (e.g., rain,snow,etc.),
thunder or fog.

VAZ042-051-052>054-056-172300-
NORTHERN VIRGINIA

CITY           SKY/WX    TMP DP  RH WIND       PRES   REMARKS
WASH NATIONAL  PTCLDY    50  26  39 NW13G18   30.00R
DULLES         PTCLDY    44  27  51 NW18G24   30.00R
FORT BELVOIR   CLEAR     48  28  46 NW9       30.00R
QUANTICO       PTCLDY    50  31  48 N14G24    30.00R
FREDERICKSBRG* CLEAR     54  31  41 N6        29.98R
STAFFORD*      CLEAR     48  32  53 N6        30.02R
WARRENTON      CLEAR     46  36  69 NW5       29.98R
CULPEPER*      CLEAR     50  21  32 NW6       29.99S
MANASSAS*      CLEAR     46  32  57 N8        30.00
LEESBURG*      CLEAR     45  30  57 NW18G25   30.02R
WINCHESTER     CLEAR     41  21  45 NW18      30.02S
FRONT ROYAL*   CLEAR     43  27  52 NW6       30.00R
LURAY*         CLEAR     46  25  42 W7        30.00S
$$

VAZ048-049-060>072-079>083-172300-
CENTRAL AND SOUTH CENTRAL VIRGINIA

CITY           SKY/WX    TMP DP  RH WIND       PRES   REMARKS
RICHMOND       MOCLDY    54  33  45 W7        29.99R
CHESTERFIELD*  CLEAR     54  28  37 W7        30.00R
PETERSBURG*    CLEAR     53  34  47 W6        30.00R
HANOVER        CLEAR     52  33  48 W7        30.00R
TAPPAHANNOCK*  CLEAR     53  30  41 W6        29.99R
QUINTON*       PTCLDY    51  34  51 W6        29.98R
CHARLOTTSVILLE CLEAR     49  27  42 CALM      29.99R
GORDONSVILLE*  CLEAR     49  30  47 CALM      29.98R
ORANGE*        CLEAR     50  28  43 W5        30.00R
LOUISA*        CLEAR     52  30  43 W7        29.97R
BUMPASS*       CLEAR     51  30  45 W3        29.98R
FARMVILLE*     CLEAR     52  28  39 CALM      30.00R
CREWE*         CLEAR     53  30  41 W5        30.00R
FORT PICKETT*  CLEAR     50  33  51 W6        30.00R
CHASE CITY*    CLEAR     54  36  50 W3        30.01S
CLARKSVILLE*   CLEAR     52  32  46 CALM      30.02R
SOUTH HILL*    CLEAR     52  34  51 CALM      30.07R
LAWRENCEVILLE* CLEAR     53  36  53 W3        30.00R
EMPORIA*       CLEAR     52  36  54 SW5       30.03R
$$

VAZ088>098-172300-
SOUTHEAST VIRGINIA

CITY           SKY/WX    TMP DP  RH WIND       PRES   REMARKS
NORFOLK        CLEAR     55  37  50 W3        29.97R
VIRGINIA BEACH PTCLDY    53  38  56 W7        29.97R
NORFOLK NAVAL  PTCLDY    57  38  48 W6        29.99R
WEST POINT*    PTCLDY    51  38  59 W7        29.99R
SALUDA*        FAIR      51  38  60 W3        29.97R
NEWPORT NEWS   CLEAR     56  38  50 NW9       29.98R
LANGLEY AFB    CLEAR     52  39  61 W6        29.98R
FORT EUSTIS    CLEAR     51  38  61 W8        29.97R
WILLIAMSBURG*  PTCLDY    55  39  54 W6        29.99R
HR EXEC AP*    CLEAR     52  37  58 W5        30.01R
FRANKLIN*      CLEAR     52  37  58 W3        30.00R
WAKEFIELD      PTCLDY    53  37  54 W5        29.99R
$$

VAZ020-022-025-037-045-172300-
WEST CENTRAL AND SOUTHWEST VIRGINIA

CITY           SKY/WX    TMP DP  RH WIND       PRES   REMARKS
STAUNTON*      CLEAR     46  20  35 CALM      30.01R
WAYNESBORO*    CLEAR     44  23  42 SW6       29.99S
HOT SPRINGS VA CLEAR     31  22  68 W20       29.95R WCI  19
LYNCHBURG      CLEAR     48  25  40 VRB3      30.04R
DANVILLE       CLEAR     53  29  39 NW5       30.03R
SOUTH BOSTON*  CLEAR     53  30  41 W6        30.02S
MARTINSVILLE   CLEAR     52  29  42 CALM      30.06R
ROANOKE        MOCLDY    47  26  44 NW8       30.07R
BLACKSBURG     CLEAR     40  27  58 NW8       30.08S
DUBLIN*        CLEAR     43  29  58 W9        30.08R
MARION*        CLEAR     42  32  67 SW8       30.09R
HILLSVILLE*    CLEAR     42  29  60 W9        30.04S
RICHLANDS*     CLEAR     39  25  56 NW5       30.08S
WISE*          CLEAR     37  27  65 CALM      30.11S
ABINGDON*      CLEAR     44  32  63 W7        30.11S
$$

MDZ021>025-VAZ099-100-172300-
SOUTHERN MARYLAND AND THE DELMARVA PENINSULA

CITY           SKY/WX    TMP DP  RH WIND       PRES   REMARKS
PATUXENT RIVER PTCLDY    50  35  56 NW10      29.96R
BAY BRIDGE APT   N/A     46  32  57 NW12      29.98R
LEONARDTOWN    CLEAR     50  34  53 CALM      29.98R
DOVER          CLEAR     47  30  51 W17       29.92R
GEORGETOWN     CLEAR     50  31  48 NW6       29.95R
EASTON         PTCLDY    48  34  57 NW10      30.00R
CAMBRIDGE      PTCLDY    52  32  46 NW9G16    29.95S
SALISBURY      CLEAR     51  33  50 W5        29.95R
OCEAN CITY     CLEAR     50  34  54 W3        29.95R
WALLOPS ISLAND MOCLDY    47  42  83 W3        29.97R
ACCOMACK*      MOCLDY    48  39  71 CALM      29.96R
$$

NCZ012>017-030>032-172300-
NORTH CENTRAL AND EASTERN NORTH CAROLINA

CITY           SKY/WX    TMP DP  RH WIND       PRES   REMARKS
ROANOKE RAPIDS CLEAR     52  37  58 W5        30.02R
RALEIGH        PTCLDY    55  34  45 W3        30.04R
ELIZABETH CITY CLEAR     55  39  54 W5        29.99S
AHOSKIE*       CLEAR     51  40  63 CALM      30.02R
EDENTON*       CLEAR     55  42  62 W5        30.00S
CURRITUCK*     CLEAR     55  38  52 W6        29.99S
KILL DEVIL HLS CLEAR     52  42  69 CALM      29.98F
MANTEO         CLEAR     49  44  82 S6        30.00F
CAPE HATTERAS  CLEAR     50  44  80 W3        30.01S
TARBORO*       CLEAR     55  38  54 W5        30.03R
GOLDSBORO      CLEAR     54  45  72 W6        30.02R
WASHINGTON     CLEAR     53  40  62 CALM      30.02R
GREENVILLE     CLEAR     55  37  50 CALM      30.04R
NEW BERN       CLEAR     58  40  51 CALM      30.03S
WILMINGTON     PTCLDY    58  40  51 W7        30.04S
$$

VAZ048-172300-
ELSEWHERE

CITY           SKY/WX    TMP DP  RH WIND       PRES   REMARKS
HARRISBURG PA  MOCLDY    42  27  55 W12       29.98R
BALTIMORE      PTCLDY    46  28  49 NW10      29.98R
ANNAPOLIS      CLEAR     49  29  46 NW9       29.98R
ANDREWS AFB    CLEAR     47  28  48 NW10      29.98R
PHILADELPHIA   MOCLDY    48  30  49 W15       29.94R
HENDERSON NC   CLEAR     53  33  47 W3        30.02R
GREENSBORO     MOCLDY    51  32  48 NW5       30.03R
ROCKY MOUNT    CLEAR     54  37  52 W3        30.03R
$$

VAZ100-172300-
MARINE

STATION/POSITION TIME  TEMP    WIND        PRES    WAVE   SWELL
                       AIR SEA DIR/SP/G            HT/PER HT/PER
                 (UTC) (F)     (DEG/KT/KT) (MB)    (FT/S) (FT/S)
CAPE MAY NJ      2200   47 46  310/ 18/ 21 1012.7F
LEWES DE         2200   49 44  310/ 11/ 12 1013.4R
15NM E FENWICK I 2200   50 48              1013.4R   3/ 4
OCEAN-CITY-INLET 2200   51 46  310/  7/  9 1013.6R
WACHAPREAGUE VA  2200   51 46  320/  1/  2 1014.7R
THOMAS POINT MD  2200   49 43  300/ 16/ 19 1016.1R
GOOSES REEF MD   2200   48     VRB 10/ 14  1013.8R
COVE POINT MD    2200   51     350/ 10/ 12 1014.4S
SOLOMONS ISLAND  2200      45                N/A
BISHOPS HEAD MD  2200   47 45  210/  5/  6 1013.9R
PINEY POINT MD   2200          330/ 12/ 13   N/A
POTOMAC MD       2200   49     310/  4/  4 1013.7R
CAMBRIDGE MD     2200   50 42  290/  9/ 15 1014.3R
LEWISETTA VA     2200   51 45     CALM     1014.3R
RAPPAHANNOCK LGT 2200          230/  8/  8 1015.1R
STINGRAY PT      2200   53     270/  6/  8 1015.3R
YORK RVR RNG VA  2200   54     310/ 10/ 11 1014.4R
YORKTOWN VA      2200   55 47  280/  8/  9 1014.7R
JAMESTOWN VA     2200   52     300/  8/ 10   N/A
DOMINION TERM VA 2200   53     270/  8/  9 1015.0S
KIPTOPEKE VA     2200      52  290/  5/  6   N/A
CHES BAY BRIDGE  2200   53 46  250/  9/ 10 1014.5R
CAPE HENRY VA    2200   54     260/  6/  8 1013.7S
CHESAPEAKE LGHT  2100   50     180/  6/  6 1015.3R
WILLOUBY STN VA  2200   54     260/ 10/ 10 1015.3R
S CRANEY ISL VA  2200          280/  5/  7 1014.8S
CAPE HENRY BUOY  2200      49                N/A     2/ 7
1ST LANDING BUOY 2200   50     260/  6/  6 1014.6R
CAPE CHARLES BUO 2200      48                N/A     2/ 8   2/ 8
64NM E OF VA BCH 2200   52 55  230/  6/  8 1014.9R   3/ 6   3/ 6
DUCK PIER NC     2200   53 49  230/  7/  8 1014.6F
44100 DUCK FRF   2200      52                N/A     2/ 9
44056 DUCK FRF   2200      49                N/A     1/11
OREGON INLET NC  2200   50 51  160/  4/  6 1015.9F
HATTERAS NC      2200   55 53  260/  8/ 10 1016.6F
DIAMOND SHLS NC  2200   58                 1016.8R   3/ 7
CAPE LOOKOUT NC  2100   56     230/  6/  8 1016.6F
$$



USA.gov is the U.S. government's official web portal to all federal, state and local government web resources and services.